Theta_e
295 295 294 294 294 294 293 294 294 294 294 294 294 294 295 294 294 292 292 291 292 292 292 292 292 292 292 292 291 291 290 290 290 290 290 291 291 290 290 290 290 290 290 290 290 290 290 290 290 289 290 290 289 289 289 289 289 289 289 289 289 289
294 294 294 293 293 293 293 293 293 293 294 294 294 294 293 293 292 292 292 292 291 291 291 291 292 292 292 292 291 290 290 290 290 290 290 290 290 290 291 290 290 290 290 290 290 290 290 289 290 290 289 289 289 289 289 289 289 289 289 289 289 289
293 294 294 294 293 293 292 293 293 294 294 293 294 294 295 294 294 293 293 293 292 291 291 291 291 291 291 291 291 290 290 290 290 290 290 290 290 290 290 290 290 290 290 290 289 289 289 290 289 290 289 289 289 289 289 289 288 288 289 289 288 289
293 293 294 294 293 293 293 294 293 293 294 295 295 294 294 295 296 294 294 293 292 292 291 291 291 291 291 291 291 290 290 291 290 291 290 290 290 290 290 289 290 290 290 289 289 289 289 289 289 290 290 289 289 289 290 289 288 288 288 288 288 288
292 292 291 291 292 292 293 293 293 294 294 294 294 293 295 296 296 296 294 293 292 292 292 291 291 290 290 290 290 290 291 291 291 291 290 290 289 290 290 290 290 290 289 289 289 289 289 289 289 289 289 289 289 289 289 289 289 288 288 288 288 288
292 291 291 293 293 294 293 294 293 293 293 294 294 293 295 296 295 294 293 292 292 292 292 291 291 290 289 289 290 290 291 291 291 291 290 290 290 290 290 290 290 290 289 289 289 289 289 289 289 289 289 289 289 289 289 289 289 289 289 289 289 289
292 292 293 292 293 292 292 292 293 293 293 294 293 294 295 295 295 293 293 292 293 293 291 291 291 290 290 289 290 290 291 291 290 290 290 290 290 290 290 290 290 289 289 289 288 289 288 289 289 289 289 289 289 289 289 289 289 289 289 289 289 289
292 292 292 293 293 292 292 292 293 292 292 293 293 293 294 294 294 293 292 292 292 292 292 292 292 291 290 290 291 290 290 290 290 290 290 289 289 290 290 289 289 289 288 289 289 289 289 289 289 289 288 289 289 289 289 289 289 289 289 289 289 289
292 293 293 293 292 292 292 292 292 292 292 293 293 293 293 293 293 293 292 292 292 292 293 293 293 292 292 291 291 291 291 290 290 289 289 289 289 289 289 289 289 289 289 289 289 289 289 289 289 289 289 288 289 288 288 288 288 288 288 289 289 289
292 292 293 293 293 293 293 293 292 292 292 292 293 293 293 293 292 291 292 292 292 292 293 294 294 293 293 292 292 291 290 290 289 289 289 289 288 288 288 289 288 289 289 288 289 289 289 289 289 289 288 288 288 288 288 288 288 288 288 288 288 288
293 293 293 294 293 293 293 293 293 293 292 292 292 292 292 292 291 291 292 292 291 293 294 294 294 293 292 291 290 290 290 290 290 289 289 288 288 289 289 289 289 288 288 288 288 288 289 288 288 289 288 288 288 288 288 288 287 287 287 287 288 288
293 293 293 293 293 293 293 293 293 294 294 294 294 293 293 292 291 291 291 292 292 294 294 294 293 292 292 291 290 290 290 290 289 289 288 288 288 288 288 288 288 288 288 288 288 288 288 288 288 287 287 288 288 288 288 288 287 287 287 287 287 287
293 293 292 293 293 294 294 294 294 294 293 293 293 293 293 292 291 291 291 292 293 293 293 293 292 292 291 291 291 291 290 290 290 289 288 288 288 288 287 287 287 287 287 287 287 287 288 288 288 287 288 288 288 287 287 287 287 287 287 286 286 286
294 294 294 294 295 295 295 295 295 294 293 294 294 294 294 292 291 291 291 292 292 292 292 292 292 292 291 291 291 291 291 290 289 289 289 288 288 288 287 287 287 287 287 287 287 287 287 288 287 288 287 288 288 287 287 287 287 287 287 286 286 286
294 295 295 295 295 295 296 296 294 294 294 294 295 294 293 292 291 291 291 291 291 291 292 292 292 291 291 292 292 291 291 290 289 289 289 288 289 288 287 287 287 287 287 287 286 286 286 287 287 288 288 287 288 288 287 287 287 287 286 286 286 286
294 295 295 295 295 295 295 294 293 294 294 293 293 292 291 291 291 291 291 291 291 291 291 291 291 291 291 292 292 291 291 290 289 290 290 289 289 288 287 287 287 287 287 287 286 286 286 287 287 288 288 287 287 288 288 288 288 288 287 287 287 287
295 295 295 295 294 295 294 294 294 294 293 293 292 291 291 291 291 291 291 290 291 291 291 291 291 291 291 291 291 291 290 290 290 290 290 289 289 288 288 288 287 287 287 287 286 286 286 286 287 288 288 287 287 288 288 288 288 288 288 288 288 287
296 295 295 296 296 295 294 293 294 293 293 293 292 291 291 290 290 290 290 290 291 291 291 291 291 291 291 291 291 290 290 290 290 290 290 289 289 289 288 288 289 288 288 287 286 286 285 286 287 287 287 287 287 288 288 288 288 288 288 288 288 288
295 295 295 294 294 293 293 294 293 293 292 291 291 291 291 290 290 290 290 290 291 291 291 291 291 291 291 291 290 290 290 290 290 290 290 289 289 288 288 287 287 287 287 287 286 286 285 286 286 287 287 287 287 287 287 287 288 288 288 287 288 288
294 294 293 292 292 292 293 293 292 291 291 290 291 290 290 290 290 290 291 291 291 291 292 291 291 290 290 290 290 290 290 291 291 290 290 289 289 288 288 288 287 287 287 286 286 286 285 285 286 286 287 287 287 287 287 287 287 287 287 287 288 288
294 294 293 292 291 292 293 292 292 291 290 290 290 291 290 290 291 291 291 291 292 292 292 292 291 291 290 290 290 290 290 290 290 290 289 289 289 289 289 288 286 286 286 286 286 285 285 285 285 286 287 287 287 286 287 287 287 286 286 286 286 287
292 291 291 291 292 294 293 293 292 291 290 290 291 290 290 290 291 292 292 292 292 292 292 292 291 290 290 290 290 290 290 290 289 289 289 289 289 288 288 287 286 286 285 285 285 284 284 284 284 285 287 287 287 287 286 287 286 286 285 286 286 286
293 292 292 292 293 293 293 292 291 290 291 291 290 290 291 292 292 292 292 292 292 292 291 291 291 290 290 290 290 290 289 289 289 289 288 288 288 287 287 285 285 285 285 285 286 285 284 284 284 285 286 286 287 287 286 286 286 286 286 286 286 285
292 292 292 292 293 292 292 292 290 290 290 290 290 291 293 293 293 292 292 291 291 291 291 291 291 290 290 290 289 288 288 289 289 288 288 288 287 286 286 285 285 285 285 285 285 284 284 284 284 284 285 286 286 286 287 286 286 287 286 285 285 285
291 291 292 293 293 293 293 291 289 290 290 290 291 292 293 293 293 292 291 291 290 290 290 290 289 289 290 289 288 288 287 288 287 287 287 286 286 286 285 284 284 285 285 285 284 284 284 284 284 284 284 284 285 286 286 287 286 287 286 285 284 284
291 291 292 292 293 293 292 291 290 289 289 290 292 293 293 292 292 291 290 289 288 289 289 288 288 289 289 288 288 287 286 286 286 286 286 286 286 285 285 284 284 284 284 284 284 284 284 284 284 284 284 284 284 285 286 286 287 287 286 285 285 285
291 291 291 292 292 293 292 292 290 288 288 291 292 292 292 291 290 289 289 288 288 288 288 288 288 288 288 288 288 286 286 286 286 285 286 285 285 285 284 284 285 284 285 285 284 285 285 285 285 285 284 283 283 284 285 285 286 286 287 285 286 286
291 290 290 291 291 292 292 292 291 288 289 292 292 292 291 289 288 287 287 287 287 288 287 287 287 287 287 287 287 287 287 286 286 286 286 286 285 284 284 284 285 285 285 284 285 285 286 286 285 285 284 283 283 283 283 284 284 284 285 285 286 285
290 290 290 290 291 292 292 291 292 291 292 291 291 290 289 288 287 287 287 287 287 287 287 286 287 287 287 287 287 287 286 286 286 285 285 286 285 284 284 284 283 283 284 284 284 284 285 285 285 284 283 281 280 281 281 281 282 283 283 284 285 285
289 289 289 290 291 292 292 291 291 292 291 291 290 289 288 287 287 287 287 287 287 288 288 287 284 285 286 287 287 286 286 285 285 285 285 285 285 284 284 284 283 283 284 284 285 285 284 284 284 283 282 281 279 279 280 281 282 282 283 283 284 283
289 289 289 290 291 291 291 290 290 291 290 290 289 288 287 287 287 287 286 287 287 287 287 287 287 287 287 287 287 287 286 286 285 285 285 286 287 286 286 286 286 285 285 285 284 284 284 284 283 284 284 282 282 281 280 281 281 283 284 284 282 280
287 287 287 289 290 290 289 289 290 290 290 289 288 287 287 286 287 286 287 287 287 287 287 287 287 286 286 286 286 286 286 283 285 286 286 285 285 285 285 285 286 286 286 285 285 285 284 284 286 285 284 283 282 282 282 282 283 284 283 282 282 280
288 287 287 288 288 288 288 288 289 289 289 289 288 287 287 286 286 287 287 287 287 287 287 287 286 286 286 286 286 286 285 285 285 284 284 285 285 285 284 284 284 285 285 284 284 285 285 284 284 283 283 283 283 283 283 282 283 283 283 282 280 278
288 288 288 289 289 288 288 288 288 288 288 288 287 287 286 286 286 286 287 287 287 287 287 287 287 286 286 286 286 285 285 284 284 285 284 284 284 284 284 284 283 284 284 284 284 283 284 283 283 283 282 282 282 282 282 282 283 283 282 282 281 277
290 290 290 289 289 288 288 288 288 288 288 288 287 287 286 286 286 286 286 287 287 287 287 287 287 286 286 285 285 284 284 284 284 283 284 284 283 283 283 283 283 283 283 283 283 283 283 283 283 282 282 282 282 282 282 282 282 283 282 282 279 277
290 289 289 288 288 288 287 287 288 288 288 287 287 287 286 286 286 286 287 287 287 287 288 287 287 287 286 286 286 286 285 284 284 284 284 284 283 280 280 280 281 281 281 282 282 282 282 282 282 283 282 282 281 282 281 281 281 282 282 281 277 276
289 288 288 287 287 287 287 287 288 288 287 287 287 286 286 286 286 287 284 283 282 286 286 287 287 287 286 286 286 285 285 284 284 283 283 283 283 283 283 282 280 280 280 280 280 281 281 282 282 282 282 281 281 281 281 281 280 278 279 279 277 275
288 288 288 288 287 287 287 287 288 288 288 287 287 286 286 286 286 286 287 287 286 285 285 286 286 286 286 286 286 286 285 284 283 283 283 282 282 282 282 282 282 279 278 278 279 280 281 281 282 281 281 281 281 281 281 278 277 277 277 276 273 274
Wind_Speed
7 7 7 7 7 7 8 8 6 5 6 6 6 7 6 5 4 4 4 5 5 5 7 7 7 7 6 6 6 5 5 6 5 5 4 4 3 4 3 4 4 3 3 3 3 3 3 3 3 3 3 2 3 3 3 3 2 2 3 2 2 2
9 8 8 8 8 8 7 7 6 7 6 6 6 6 6 5 6 6 6 6 6 5 6 7 7 7 7 7 7 6 7 7 7 6 6 6 4 5 4 4 5 4 4 4 3 3 3 3 3 3 3 3 3 3 3 3 3 3 3 3 3 2
10 10 8 7 7 6 7 6 7 6 5 6 6 7 7 6 6 5 6 5 6 6 8 8 7 8 7 7 8 8 8 8 7 7 7 5 6 5 6 6 6 6 6 5 5 5 5 5 4 4 4 4 3 3 3 4 4 4 4 3 4 4
9 9 8 6 5 6 6 5 5 6 7 5 4 5 6 6 6 6 5 5 5 7 7 7 7 6 6 8 8 9 9 8 8 8 7 8 8 7 7 8 7 6 7 7 7 7 6 6 6 5 5 5 5 5 3 4 5 6 5 5 5 6
8 9 10 10 9 8 7 6 5 5 6 5 5 5 8 7 6 4 4 5 5 7 6 6 6 6 7 8 8 9 9 9 9 8 8 9 8 8 8 8 8 8 8 8 8 8 8 8 7 7 6 7 7 7 6 6 7 7 7 7 7 8
8 7 8 8 7 7 7 6 6 6 6 5 5 7 8 6 5 4 4 5 6 6 6 6 6 7 7 8 8 9 10 8 8 7 8 9 8 8 8 9 9 9 9 9 9 9 9 9 8 8 8 9 9 8 9 8 8 8 8 8 8 8
8 7 7 8 8 7 7 7 6 6 6 5 6 7 7 6 4 4 5 5 6 6 6 7 7 7 8 9 8 9 9 8 8 7 8 8 8 9 8 8 8 9 9 9 10 10 10 10 10 10 10 9 9 10 9 9 9 9 10 10 10 9
8 8 8 7 7 7 7 8 7 7 7 7 6 6 6 6 4 4 5 5 6 6 7 7 7 8 9 9 9 9 8 8 8 8 8 8 9 9 9 9 8 8 10 10 11 11 11 10 10 11 11 11 10 10 10 10 10 10 10 10 10 11
10 9 9 8 8 8 7 7 8 7 7 8 8 6 6 6 4 5 5 6 6 6 8 8 8 8 8 8 8 7 7 8 8 8 9 8 9 9 9 9 10 9 10 11 10 11 11 11 10 10 11 11 11 11 11 10 11 11 10 10 11 11
10 10 10 10 8 7 7 7 7 8 7 8 7 6 5 5 5 6 6 6 6 7 8 8 8 7 7 6 6 7 7 7 8 9 8 8 9 10 10 10 10 9 9 10 10 11 10 10 10 10 11 10 11 10 10 11 11 11 11 11 11 11
9 10 10 9 9 9 9 7 7 6 7 7 8 6 7 5 5 6 6 6 7 8 8 7 6 5 6 6 6 7 8 8 8 8 8 8 9 8 9 9 9 9 10 10 10 10 9 9 10 9 9 10 11 11 11 11 11 11 12 11 12 12
10 10 10 10 10 9 9 7 7 7 7 7 6 7 7 4 6 6 7 7 8 7 7 6 6 6 6 6 8 8 8 7 7 7 8 9 9 9 8 9 9 9 10 10 10 10 9 9 8 11 15 13 10 10 9 9 11 11 12 12 11 12
10 10 10 10 10 10 8 8 8 7 7 8 7 7 5 4 6 7 7 9 8 7 6 6 7 6 7 8 7 7 8 8 7 7 8 8 8 9 9 8 9 10 10 11 10 10 9 9 9 15 14 16 18 13 10 10 11 11 11 12 12 12
10 10 10 10 10 9 8 8 8 6 9 8 8 7 4 5 6 8 8 8 8 8 8 7 7 7 8 7 9 9 8 7 7 8 8 8 8 9 8 9 10 10 9 9 10 10 10 10 12 14 16 17 18 16 12 11 10 10 11 11 12 11
10 10 10 9 9 9 9 8 7 9 9 8 8 6 6 7 7 8 9 9 8 9 8 8 8 8 8 9 9 8 7 7 7 8 8 10 9 7 8 10 9 10 9 9 10 10 10 10 12 13 16 17 18 19 16 11 11 11 12 11 12 12
9 9 10 10 11 10 9 7 8 10 9 8 8 7 8 8 9 8 9 9 9 9 9 9 9 9 10 9 8 8 8 8 9 9 8 7 6 8 8 9 10 9 9 9 10 9 9 10 10 14 16 16 18 18 17 13 13 12 12 13 12 11
11 11 10 10 9 8 7 8 8 8 8 7 8 7 8 8 9 9 9 10 9 8 9 10 10 10 10 9 9 9 9 9 9 9 8 8 9 8 9 9 9 9 9 9 8 8 9 8 11 13 15 16 17 18 16 12 11 11 12 12 13 13
11 11 11 9 6 7 6 9 9 8 10 7 8 9 8 8 9 11 9 10 10 10 10 10 10 10 10 9 9 9 10 10 10 10 8 8 8 7 7 8 8 9 9 9 8 8 10 9 11 13 15 16 17 17 11 11 12 12 12 12 12 12
11 11 9 9 8 8 10 10 9 9 9 9 8 9 9 8 10 10 10 11 12 11 10 10 10 10 10 9 9 10 11 10 10 10 7 7 8 8 8 8 8 7 8 8 9 10 10 9 11 13 15 16 17 13 10 11 10 11 12 12 11 11
11 10 8 10 10 10 9 9 9 9 9 10 9 9 10 9 10 11 11 12 12 11 10 9 10 10 10 9 10 11 10 10 9 9 7 8 8 8 9 7 7 7 8 9 9 10 10 9 10 12 13 16 17 15 11 10 10 11 11 11 10 10
12 11 9 9 11 12 11 10 10 9 10 10 10 10 11 10 10 11 11 12 11 10 10 9 9 10 10 10 11 10 10 10 9 7 5 7 8 9 7 6 7 6 6 8 9 10 11 10 11 12 13 16 17 14 10 10 9 10 11 9 9 10
12 13 11 11 12 11 11 10 9 10 11 11 10 11 11 11 11 11 11 11 12 10 9 8 9 10 10 11 11 9 10 8 6 7 7 8 7 8 7 6 6 8 7 6 7 8 10 11 9 11 14 16 17 19 11 9 10 11 11 9 9 8
10 13 14 11 11 11 10 9 9 11 11 11 11 13 11 11 10 11 12 11 11 10 9 9 9 11 10 10 10 8 9 8 8 7 7 8 7 7 7 7 7 8 8 7 9 9 9 9 10 11 14 16 18 19 17 11 12 11 9 9 9 9
12 13 13 10 9 10 9 8 10 11 11 11 14 14 10 9 10 11 10 11 11 10 9 9 10 10 9 8 8 8 9 8 7 7 8 6 7 8 9 8 6 7 8 8 9 9 10 11 15 11 13 15 17 18 20 13 12 11 9 9 10 9
12 13 15 11 8 9 9 9 12 12 10 13 17 11 9 10 10 10 11 11 11 9 9 9 10 9 6 7 8 9 9 8 4 6 8 8 8 9 9 8 8 8 9 9 7 7 9 9 8 13 13 15 16 18 19 20 14 13 10 10 10 10
11 13 13 11 9 9 9 8 11 10 13 16 13 9 10 10 10 9 10 11 9 9 9 8 8 9 8 8 6 6 7 6 5 4 6 7 8 7 7 7 7 7 8 9 8 7 7 7 8 10 16 15 15 16 17 18 20 18 12 10 10 9
13 12 13 12 11 9 9 8 10 11 14 15 10 10 10 10 9 9 10 10 9 9 8 7 7 7 6 5 6 6 7 6 5 7 7 7 7 8 8 8 6 7 8 7 8 7 6 7 7 8 9 11 11 14 17 18 18 19 19 13 11 10
10 11 12 14 12 10 10 9 8 12 14 11 11 10 10 9 10 10 11 11 10 10 10 9 9 9 8 8 6 6 6 6 6 7 7 7 7 7 8 8 7 8 8 7 7 7 7 5 5 5 5 5 8 10 14 16 16 17 17 17 13 11
10 13 13 15 13 9 11 9 10 10 10 10 9 8 7 8 10 11 11 12 11 10 9 9 6 5 6 7 6 6 6 6 6 7 8 8 7 7 7 8 7 7 6 7 7 7 5 5 5 6 4 4 4 5 6 7 9 14 14 11 11 10
9 12 12 13 13 8 10 12 12 11 11 9 7 6 7 9 10 10 11 13 10 6 8 6 10 10 7 7 6 6 5 6 7 8 9 9 8 7 8 7 7 8 6 6 7 6 5 6 6 5 6 6 5 5 6 6 6 7 7 8 7 5
10 13 12 14 10 9 10 11 13 11 10 9 7 6 7 10 10 10 12 12 9 9 7 6 6 7 7 7 6 7 7 6 6 9 9 10 6 7 7 6 6 5 4 4 5 5 7 7 6 7 6 7 7 7 6 6 7 7 7 8 9 5
11 13 13 14 11 10 10 11 12 11 9 7 6 5 8 10 10 9 11 10 8 6 6 6 6 5 7 8 8 7 8 11 14 11 9 9 11 12 13 11 9 7 5 6 9 8 7 6 2 3 6 7 9 13 13 12 11 9 5 8 15 9
11 11 13 13 9 9 10 11 12 12 10 7 6 6 8 9 8 6 7 8 7 9 6 6 6 6 6 7 7 7 7 6 7 15 18 16 12 10 13 16 19 18 16 10 7 4 9 10 8 7 8 9 10 11 13 14 14 14 11 14 10 6
13 13 14 12 8 9 10 11 12 11 10 7 6 6 8 9 7 7 7 7 9 9 9 6 6 6 7 7 6 7 6 6 7 6 11 15 17 18 16 12 14 14 14 13 11 9 8 7 9 11 11 11 12 12 13 13 13 14 14 17 14 7
12 13 13 12 9 10 11 11 14 11 9 6 6 6 8 9 9 10 10 8 8 8 11 9 8 7 7 7 6 5 5 7 6 7 6 6 10 11 11 12 12 11 12 13 14 14 14 13 10 9 10 12 13 12 12 12 13 15 16 18 12 8
11 12 12 12 11 11 11 12 14 12 8 5 6 7 9 10 10 10 8 7 7 8 8 8 7 7 7 6 7 7 6 6 7 8 7 6 3 3 5 6 10 12 13 14 15 14 14 14 14 15 14 13 12 12 12 11 10 14 17 17 11 8
11 11 14 13 11 10 10 13 15 11 6 5 7 8 9 9 9 7 10 14 11 7 8 8 8 7 7 7 7 7 7 8 6 5 6 6 6 6 6 5 5 9 12 9 7 10 13 13 13 13 13 13 12 12 11 12 8 9 10 11 9 7
10 12 13 11 9 9 11 15 14 8 6 6 7 8 9 9 8 7 7 6 7 6 6 7 8 7 7 7 7 6 6 6 5 6 6 5 6 6 6 5 2 1 2 7 10 10 10 11 12 12 13 12 13 13 13 10 9 8 9 7 3 5
Wind_Direction
305 298 292 292 284 280 279 285 283 270 258 253 252 257 256 259 251 246 239 230 229 227 229 226 219 220 225 226 231 237 237 241 241 241 246 251 229 232 225 221 220 213 201 204 186 179 172 175 168 171 172 176 152 162 153 162 174 167 152 154 149 153
299 297 296 298 298 294 288 283 279 266 256 249 248 251 252 246 240 234 236 225 224 226 229 230 228 223 221 219 218 223 228 233 234 234 236 237 236 233 235 235 236 229 225 217 212 198 195 193 190 198 192 201 186 193 185 177 196 191 184 174 183 186
299 298 293 283 281 270 266 264 270 274 262 251 244 249 248 235 232 224 231 219 221 224 227 227 219 220 216 219 217 224 226 228 227 229 230 229 230 227 228 233 235 235 234 230 224 222 214 209 206 206 206 221 209 212 208 190 206 209 213 200 201 207
295 295 293 285 280 279 275 270 264 267 257 249 249 246 248 245 233 218 222 217 219 218 226 228 227 221 215 216 217 221 225 223 222 222 219 224 228 220 223 227 228 231 231 231 230 229 227 222 221 213 218 224 218 219 209 213 213 218 221 216 223 215
288 290 290 288 285 280 280 278 261 263 269 262 244 245 256 240 245 225 221 221 223 224 222 222 221 216 219 223 227 227 225 224 223 214 215 221 224 217 219 223 225 225 226 228 231 231 229 227 225 223 221 226 227 226 220 218 222 223 223 221 225 224
286 282 282 286 286 284 282 278 273 268 262 255 249 249 256 251 236 230 223 228 234 233 225 222 217 215 218 223 227 231 230 228 227 216 220 223 222 221 215 218 224 224 223 228 229 230 230 227 225 225 223 228 229 230 231 225 223 227 231 232 232 230
287 286 285 283 284 283 280 276 274 271 271 261 253 256 256 254 241 233 232 229 239 231 227 228 215 215 215 220 222 226 228 228 228 226 225 223 226 225 221 218 217 223 224 224 226 228 230 228 226 227 227 227 229 232 234 233 231 230 232 234 236 237
293 285 280 278 275 272 278 278 274 273 268 265 255 257 264 255 230 229 236 231 232 237 232 233 222 221 219 218 219 221 219 219 221 225 226 222 231 227 223 224 216 214 223 225 227 229 231 229 226 227 228 229 228 229 233 236 236 236 235 235 235 236
281 280 279 272 272 268 265 271 275 273 271 272 265 247 248 258 246 235 234 234 231 240 239 234 227 224 223 220 220 214 209 211 214 215 222 217 222 226 227 224 225 222 223 228 228 229 229 230 227 227 228 229 229 229 230 232 234 237 237 236 235 234
277 275 274 277 273 273 268 259 258 262 266 272 275 268 253 243 235 239 234 231 235 236 240 235 232 228 230 231 226 221 219 214 209 212 215 212 216 223 226 226 223 226 222 228 230 230 229 228 229 229 228 227 227 228 230 230 232 234 236 236 235 234
270 272 274 273 277 275 272 267 264 256 250 250 258 261 260 252 246 248 238 232 235 239 239 239 233 233 232 227 231 231 227 221 216 211 208 207 216 218 223 225 225 225 226 227 228 230 225 225 228 227 223 223 225 227 231 231 231 233 237 239 237 235
267 267 269 272 269 270 270 268 265 260 262 266 256 254 258 238 248 247 247 240 239 240 244 245 243 239 230 225 227 229 227 224 219 213 211 213 215 218 217 220 222 224 229 230 228 224 223 223 225 224 223 222 228 226 227 230 233 233 236 239 241 239
268 268 267 265 264 264 265 266 268 268 268 263 260 258 252 232 256 251 248 252 249 249 249 247 244 233 233 233 231 229 226 225 219 219 221 219 215 216 214 210 218 220 224 227 227 224 221 223 225 227 220 221 224 231 237 236 237 235 235 236 238 241
273 268 265 265 267 268 265 267 267 263 266 264 264 267 264 246 248 253 254 255 261 260 255 248 245 240 240 235 235 230 227 222 221 224 225 225 221 217 209 213 218 221 219 222 226 228 227 228 227 220 221 220 221 218 228 237 240 237 236 236 236 240
266 269 271 270 266 263 263 263 276 272 268 269 271 280 273 262 257 257 256 253 251 257 257 254 250 247 243 239 238 232 226 224 225 226 224 225 223 210 210 219 217 220 218 218 224 228 228 231 228 216 218 219 219 219 218 234 236 237 238 235 235 238
269 260 255 260 269 266 271 272 265 269 274 278 282 274 271 269 267 257 258 256 248 247 251 253 251 249 246 243 241 236 233 228 228 228 224 225 220 216 222 225 223 221 217 216 220 231 234 233 224 212 219 220 219 219 218 231 234 237 239 237 233 234
263 270 270 261 254 265 271 268 250 258 271 265 272 265 262 262 265 264 260 259 255 243 241 245 246 249 250 247 243 241 238 232 236 233 226 220 223 218 219 222 222 223 220 220 219 230 242 238 229 214 218 220 220 222 220 230 232 236 240 240 236 235
261 262 266 270 278 273 266 268 273 279 277 276 270 275 268 265 266 268 268 265 258 248 241 239 245 248 248 246 243 243 242 235 232 234 225 221 232 228 229 236 228 232 227 223 219 225 242 246 225 205 218 220 221 219 220 228 232 235 238 240 238 235
278 274 275 282 278 275 273 273 277 277 279 279 272 269 270 264 266 266 263 262 262 254 247 241 242 247 249 248 246 245 244 240 237 236 222 227 230 227 224 222 218 222 226 223 217 224 238 249 229 207 215 220 219 215 223 226 229 233 236 237 237 236
272 271 263 275 278 272 268 271 278 280 278 274 270 268 267 261 263 264 262 262 261 257 252 246 244 248 247 247 246 246 246 245 242 240 215 223 229 229 230 221 220 220 223 222 225 220 229 243 235 214 210 217 215 209 219 223 227 232 234 237 233 234
282 289 290 278 275 271 270 273 275 274 271 268 266 261 264 261 261 260 256 259 262 260 258 255 252 250 250 248 248 245 249 248 243 236 218 228 232 236 237 220 222 225 218 218 224 223 228 243 247 230 210 215 214 210 219 223 229 234 235 232 233 230
290 285 277 270 267 270 272 271 269 266 266 265 263 264 260 256 253 256 261 265 266 266 264 259 252 252 251 251 250 249 250 252 248 242 237 234 230 236 234 225 223 229 231 214 213 225 225 234 240 236 217 211 214 210 212 222 228 231 233 228 230 231
270 272 274 273 275 277 272 266 265 265 262 265 269 264 258 256 259 263 265 266 266 265 262 261 255 255 251 247 249 250 257 253 249 248 242 239 235 234 237 227 227 228 237 234 229 225 224 217 230 238 225 215 215 214 210 225 227 233 231 232 227 226
275 274 270 255 254 258 258 254 256 258 263 267 264 261 261 264 265 263 262 261 260 260 258 257 258 251 247 247 244 248 250 248 237 242 248 244 238 234 235 234 228 228 237 238 230 223 230 226 225 238 238 225 219 218 214 220 228 225 230 233 237 234
267 270 273 273 263 259 254 247 255 258 258 262 262 265 268 271 267 263 261 261 261 255 250 252 252 249 235 239 234 240 247 245 231 225 233 239 239 239 240 235 234 234 240 243 235 226 226 229 227 227 240 237 225 222 221 222 228 226 222 234 238 236
262 268 271 269 260 256 254 242 255 253 263 263 266 268 273 273 267 265 264 268 262 260 254 252 250 244 244 247 243 233 239 235 229 226 229 227 231 240 240 242 232 232 240 242 247 242 232 228 234 230 230 238 232 231 231 232 231 229 230 232 239 241
266 268 275 277 269 265 261 249 255 264 261 263 266 269 271 267 270 273 274 275 274 270 265 260 253 251 250 244 236 234 235 226 209 239 236 224 228 234 237 244 234 232 238 241 245 253 250 234 227 238 236 228 233 236 240 239 237 237 234 237 241 237
261 267 273 279 275 273 273 262 248 262 259 264 267 269 269 274 276 275 274 276 276 273 271 268 263 258 253 252 237 229 230 228 223 230 237 229 226 223 231 239 238 238 238 243 250 253 255 250 236 240 236 213 219 233 241 241 241 240 237 237 245 246
271 275 277 280 280 276 281 279 265 257 264 267 267 273 272 271 271 273 274 274 275 274 270 264 261 260 251 241 239 231 231 224 227 229 235 233 227 221 227 233 233 243 244 246 248 251 253 250 247 240 228 199 210 224 231 231 240 240 242 244 243 242
267 272 276 271 273 277 283 283 279 276 276 273 273 270 265 265 265 267 270 271 272 265 268 259 259 258 259 249 232 238 229 222 213 226 229 221 215 216 227 227 230 234 234 239 245 244 243 241 229 226 229 192 202 218 221 225 224 220 213 218 213 186
272 269 273 272 271 279 281 278 279 280 277 276 274 264 259 263 264 262 267 269 268 263 258 253 248 245 250 252 243 232 226 218 210 223 239 236 225 218 229 236 241 229 217 221 234 239 245 242 235 237 214 217 204 209 220 220 222 219 216 199 168 139
263 270 270 273 276 278 276 277 277 277 273 272 267 250 254 261 265 263 265 267 264 257 255 250 247 232 239 245 252 251 246 233 232 234 231 252 235 232 241 240 244 242 231 235 240 228 234 242 280 83 193 217 223 230 231 238 240 227 196 164 164 155
270 267 268 270 274 270 267 269 272 275 274 268 263 250 251 257 260 253 252 262 255 264 256 254 255 251 243 242 243 248 255 268 227 226 236 242 251 235 227 233 241 247 247 239 260 261 251 265 277 270 265 255 246 239 240 243 242 231 200 168 154 170
280 278 275 277 275 272 273 272 273 271 273 266 257 248 250 251 253 259 260 259 271 271 265 259 258 259 259 257 246 244 249 252 271 264 216 226 240 242 238 221 232 239 248 254 256 269 276 250 245 254 258 259 256 249 243 242 237 222 189 188 168 178
270 274 277 279 278 277 275 276 276 276 274 264 257 251 254 254 252 263 269 268 270 270 272 268 265 263 263 259 256 254 246 255 258 266 284 204 219 241 244 244 248 253 256 254 252 249 254 264 268 255 250 251 252 246 240 237 232 223 204 190 195 203
268 269 271 272 269 267 271 273 273 274 275 266 257 254 252 258 257 258 261 265 266 270 273 271 268 264 263 260 263 261 257 249 244 255 258 278 262 236 261 264 255 250 249 250 251 252 252 255 255 258 258 255 247 239 234 228 227 217 209 195 197 202
269 270 269 268 271 270 269 270 270 273 274 258 253 255 260 260 261 255 259 258 260 263 267 269 271 269 266 267 259 252 246 247 243 234 251 250 260 272 265 228 214 227 232 240 248 247 246 245 249 250 251 253 249 234 221 215 212 208 210 205 204 201
262 266 271 273 271 272 272 271 271 277 270 256 249 250 257 262 263 259 259 264 256 245 246 255 262 261 262 264 259 250 245 250 247 245 241 242 248 256 266 273 228 147 201 238 247 249 248 245 244 246 246 247 235 220 202 201 207 206 208 205 186 199